Regional Weather Roundup
Issued by NWS

Home | Current Version | Previous Version | Graphics & Text | Print | Product List | Glossary On
Versions: 1 2 3 4 5 6 7 8 9 10 11 12 13 14 15 16 17 18 19 20 21 22 23 24 25 26 27
000
ASUS45 KSLC 261910
RWRUT

UTAH REGIONAL WEATHER ROUNDUP
NATIONAL WEATHER SERVICE SALT LAKE CITY UT
100 PM MDT MON JUN 26 2017

UTZ001>011-023>025-262000-

NORTHERN UTAH

CITY           SKY/WX    TMP DP  RH WIND       PRES   REMARKS
BRIGHAM CITY   PTSUNNY   86  42  21 CALM      30.06F
DUGWAY         PTSUNNY   92  28  10 NW3       30.03F
HILL AFB       MOSUNNY   87  45  22 CALM      30.09F
LOGAN          MOSUNNY   85  49  28 N6        30.07F
OGDEN          PTSUNNY   90  38  16 SE7       30.06F
SALT LAKE CITY PTSUNNY   93  35  13 SE13G18   30.03F
TOOELE VALLEY  MOSUNNY   90  45  20 N9        30.04F
WENDOVER         N/A     88  37  16 SE10      30.03F
HEBER CITY     SUNNY     86  34  15 CALM      30.15F
WEST JORDAN    MOSUNNY   91  51  25 SE12      30.08F

$$

UTZ011>015-024>027-262000-

CENTRAL/NORTHEAST UTAH

CITY           SKY/WX    TMP DP  RH WIND       PRES   REMARKS
PROVO AIRPORT  MOSUNNY   84  52  33 W5        30.09F
MOAB/CANYONLAN SUNNY     97  21   6 E5        30.07F HX  90
DELTA          MOSUNNY   91  25   9 SW5       30.08F
PRICE          SUNNY     88  26  10 VRB7      30.20F
RICHFIELD      SUNNY     93  32  11 S8        30.13F
VERNAL         SUNNY     87  32  14 SE6       30.17F

$$

UTZ013>016-019>022-027-262000-

SOUTHERN UTAH

CITY           SKY/WX    TMP DP  RH WIND       PRES   REMARKS
BRYCE CANYON   PTSUNNY   81  30  15 VRB5G16   30.35F
CEDAR CITY     SUNNY     93  23   8 S23G33    30.16F
MILFORD        SUNNY     96  23   7 SW22G30   30.09F HX  90
ST GEORGE      CLEAR    101  27   7 SW10G16   29.95F HX  94
HANKSVILLE     SUNNY     95  27   8 SE3       30.09F
KANAB          SUNNY     97  30   9 S9        30.16F HX  91
BLANDING       SUNNY     86  39  19 CALM      30.31F

$$

REGIONAL REPORTS     COLORADO/ARIZONA

CITY           SKY/WX    TMP DP  RH WIND       PRES   REMARKS
CRAIG, CO      SUNNY     86  23  10 N6        30.24F
GRAND JUNCTION SUNNY     92  27   9 VRB7      30.11F
RIFLE, CO      SUNNY     87  24  10 N5        30.18F
MONTROSE, CO   SUNNY     89  32  13 N9        30.20F
CORTEZ, CO     SUNNY     88  41  19 SW13      30.23F
COLORADO CITY    N/A     99  27   8 SW14G25   30.16F HX  92
PAGE, AZ       SUNNY     98  33  10 NE5       30.07F HX  92
GRAND CANYON   SUNNY     89  21   8 SW21G31   30.31F
KINGMAN, AZ    SUNNY     99  29   8 MISG      30.08S HX  93
FLAGSTAFF, AZ  SUNNY     84  33  16 VRB5G16   30.35F

$$

REGIONAL REPORTS    NEVADA/IDAHO/WYOMING

CITY           SKY/WX    TMP DP  RH WIND       PRES   REMARKS
LAS VEGAS, NV  SUNNY    103   3   2 S18G29    29.88F HX  94
ELY, NY        SUNNY     89  33  13 S14G24    30.15F
ELKO, NV       SUNNY     92  29  10 VRB5      30.04F
POCATELLO, ID  MOSUNNY   86  54  33 NE8       30.06F
BURLEY, ID       N/A    N/A N/A N/A MISG      29.99F
FORT BRIDGER,    N/A     80  31  17 S6        30.31F
EVANSTON, WY   SUNNY     77  36  22 MISG      30.29F
ROCK SPRINGS,  SUNNY     82  28  14 E7        30.26F
KEMMERER, WY     N/A     77  27  15 S6        30.31F

$$




USA.gov is the U.S. government's official web portal to all federal, state and local government web resources and services.